Showing default

USA 270, 41744

Orbit data source: Space-Track

USA 270, 41744 is a payload satellite owned by USAF AFSPC (US) in GEO that was launched on Fri, 19 Aug 2016 UTC via a DELTA 4M+(4,2) launch vehicle from the Air Force Eastern Test Range (AFETR). Payload-class satellites include a variety of spacecraft equipped with specific instruments for various scientific and technological missions. These include communications satellites like Starlink; space stations such as the ISS; scientific satellites like the Hubble; Earth observation satellites from companies like Planet Labs, Umbra, and HawkEye 360; GPS; miniature CubeSats for education and research; and military/defense satellites.

Not visible in the next 10 days
Identifier
41744, 2016-052A
Orbit
GEO
Country
Flag of USUS
Related business
Manufacturer
OATK SSG
Mission
Operational Defense Classified
Bus & Motor
GEOSTAR-1, AOCS
Mass
500 kg wet, 500 kg dry
Launch date (UTC)
2016-08-19 (10 years ago)
Launch vehicle
DELTA 4M+(4,2)
Launch site
Air Force Eastern Test Range (AFETR)
Object type
Payload
Rocket body
Debris
Shape & HBR
Box + 2 Pan, 2.5 m
Radar Cross Section
7.621 m²

Expand to show TLE details & history
Last TLE update: 3 days ago

TLE from 3 days ago
0 USA 270
1 41744U 16052A   26170.64105860 -.00000195  00000-0  00000+0 0  9995
2 41744   4.2028  77.1719 0000455 171.4902  57.9144  0.99500819 28155
Epoch: 2026-06-19T15:23Z
TLE epoch observation values (Epoch: 2026-06-19T15:23:07.463Z)
Latitude
-3.21268°
Longitude
167.87421°
Altitude
36,003.07 km
Speed
3.067 km/s
True Right ascension
20h 26m 05s
True Declination
-3° 12' 34"
Sunlit
Object was in daylight at epoch
Visualization orbit readout
Latitude
Unknown
Longitude
Unknown
Altitude
Unknown
Speed
Unknown
Apparent Right ascension
Unknown
Apparent Declination
Unknown
Sunlit
N/A
Visualization observer readout
Local Sidereal Time
21:36:28
Azimuth
Unknown
Elevation
Unknown
Doppler factor
Unknown
Orbital elements
Apogee altitude
36,007.104 km
Perigee altitude
36,003.247 km
Semi-major axis
42,383.313 km
Eccentricity
0.00005
Inclination
4.2028°
RAAN
77.1719°
Arg. of periapsis
171.4902°
True anomaly
57.91882°
Mean anomaly
57.9144°
Eccentric anomaly
57.91661°
Mean motion
0.24874 °/min
Orbital period
1,447.28 mins
BSTAR
0
Loading maneuver chart data...
Computing Atmospheric mass density...
Loading historical data...
Loading historical data...
Loading historical data...
Loading historical data...
Loading historical data...
Loading historical data...
Loading historical data...
Other satellites on launch #52 in the year 2016 (2016-08-19 UTC)

Documentation

Showing up to 5 results
|